Flag for Germany Weather past 2 weeks in Hemer, North Rhine-Westphalia, Germany

Now
34 °F

Clear.


Feels Like: 26 °F
Forecast: 27 / 34 °F
Wind: 9 mph from South

Location: Dortmund / Wickede

Current Time: Dec 26, 2014 at 11:51:10 PM

Latest Report: Dec 26, 2014 at 8:50 PM


Visibility: 10 mi

Pressure: 30.21 "Hg

Humidity: 87%

Dew point: 30 °F

Location of HemerLocation

Historic Weather in Hemer — Graph

°F

Hemer temperature yesterday

Maximum temperature yesterday: 41 °F (at 2:20 PM)
Minimum temperature yesterday: 37 °F (at 4:50 PM)
Average temperature yesterday: 39 °F

Past Weeks' High & Low Weather Summary

 TemperatureHumidityPressure
High54 °F (Dec 18, 5:20 PM)93% (Dec 13, 10:20 PM)30.39 "Hg (Dec 13, 10:20 PM)
Low32 °F (Dec 14, 10:50 PM)65% (Dec 15, 5:50 AM)29.39 "Hg (Dec 12, 12:50 PM)
Average43 °F83%29.93 "Hg
* Reported Dec 11 8:20 PM — Dec 26 8:50 PM, Hemer, Weather by CustomWeather, © 2014

Note: Actual official high and low records may vary slightly from our data, if they occured in-between our weather recording intervals... More about our weather records

Advertising

Hemer weather history for previous 24 hours

 ConditionsComfort  
Time TempWeatherWind HumidityBarometerVisibility
8:50 PM
Dec 26
34 °FClear.9 mph87%30.21 "Hg10 mi
8:20 PM32 °FPassing clouds.9 mph93%30.21 "HgN/A
7:50 PM34 °FPassing clouds.8 mph87%30.24 "HgN/A
7:20 PM34 °FPassing clouds.9 mph87%30.24 "HgN/A
6:50 PM34 °FPassing clouds.9 mph87%30.27 "HgN/A
6:20 PM34 °FClear.8 mph87%30.27 "Hg10 mi
5:50 PM32 °FClear.7 mph87%30.27 "Hg10 mi
5:20 PM34 °FClear.7 mph87%30.30 "Hg10 mi
4:50 PM32 °FClear.8 mph87%30.30 "Hg10 mi
4:20 PM34 °FSunny.8 mph87%30.30 "Hg10 mi
3:50 PM36 °FSunny.8 mph81%30.30 "Hg10 mi
3:20 PM36 °FPassing clouds.8 mph87%30.33 "HgN/A
2:50 PM37 °FPassing clouds.7 mph81%30.33 "HgN/A
2:20 PM37 °FScattered clouds.6 mph81%30.33 "HgN/A
1:50 PM37 °FScattered clouds.7 mph87%30.33 "HgN/A
1:20 PM39 °FScattered clouds.7 mph81%30.33 "HgN/A
12:50 PM37 °FScattered clouds.6 mph87%30.36 "HgN/A
12:20 PM37 °FPassing clouds.7 mph87%30.36 "Hg5 mi
11:50 AM36 °FBroken clouds.7 mph93%30.36 "Hg4 mi
11:20 AM36 °FFog.6 mph93%30.39 "Hg3 mi
10:50 AM36 °FFog.3 mph87%30.39 "Hg2 mi
10:20 AM34 °FFog.6 mph93%30.36 "Hg1 mi
9:50 AM34 °FFog.7 mph93%30.36 "Hg1 mi
9:20 AM34 °FPassing clouds.5 mph87%30.36 "Hg4 mi
8:50 AM34 °FFog.7 mph93%30.36 "Hg3 mi
8:20 AM34 °FPassing clouds.7 mph93%30.36 "Hg4 mi
7:50 AM34 °FPassing clouds.7 mph93%30.36 "Hg5 mi
Weather by CustomWeather, © 2014

See weather overviewHow to use our weather pages